SCP
0 0 0 0 0 0 0 0 0 0 0 0 0 0 0 0 0 -0 0 0 0 0 0 0 0 0 0 0 0 0 0 0 0 0 0 0 0 0 0 -0 0 0 0 -0 -0
0 0 0 0 0 0 0 0 0 0 0 0 0 0 0 0 0 0 0 0 0 0 0 0 0 0 0 0 0 0 0 0 0 0 0 0 0 0 0 0 0 -0 -0 -0 -0
0 0 0 0 0 0 0 0 0 0 0 0 0 0 0 0 0 0 0 0 0 0 0 0 0 0 0 0 0 0 0 0 0 0 0 0 0 0 0 0 -0 -0 -0 -0 -0
0 0 0 0 0 0 0 0 0 0 0 0 0 0 0 0 0 0 0 0 0 0 0 0 0 0 0 0 0 0 0 0 0 0 0 0 0 0 0 0 0 -0 -0 -0 -0
-0 -0 -0 0 0 -0 0 0 0 0 0 0 0 0 -0 0 0 0 -0 0 0 0 0 0 0 0 0 0 0 0 0 0 0 0 0 0 0 0 0 0 -0 -0 -0 -0 0
-0 -0 -0 -0 -0 -0 0 -0 0 0 0 -0 0 0 -0 0 0 0 0 0 -0 -0 0 0 0 0 0 0 0 0 0 0 0 0 0 -0 0 0 0 0 0 0 0 0 0
-0 -0 -0 -0 -0 -0 -0 -0 -0 -0 -0 -0 0 0 0 0 0 0 0 0 0 0 0 0 0 0 0 0 0 0 0 0 0 0 0 0 0 0 0 0 0 0 0 0 0
-0 0 0 -0 -0 -0 -0 -0 -0 -0 -0 -0 -0 -0 0 0 0 0 -0 0 0 0 0 0 0 0 0 0 0 0 0 0 0 0 0 0 0 0 0 0 0 0 0 0 0
-0 0 0 0 -0 -0 -0 -0 -0 -0 -0 -0 -0 0 0 0 0 0 0 0 0 0 0 0 0 0 0 0 0 0 0 0 0 0 0 0 0 0 0 0 0 0 0 0 0
-0 -0 -0 -0 -0 -0 -0 -0 0 -0 -0 -0 -0 -0 0 0 0 0 0 0 0 0 0 0 0 0 0 0 0 0 0 0 0 0 0 0 0 0 0 0 0 0 0 0 0
-0 -0 -0 -0 -0 -0 -0 -0 0 0 0 -0 0 0 0 0 0 0 0 0 0 0 0 0 0 0 0 0 0 0 0 0 0 0 0 0 0 0 0 0 0 0 0 0 0
-0 -0 -0 -0 -0 -0 -0 -0 0 0 0 0 -0 -0 -0 -0 0 0 0 0 0 0 0 0 0 0 0 0 0 0 0 0 0 0 0 0 0 0 0 0 0 0 0 0 0
-0 -0 -0 -0 -0 -0 -0 0 0 0 0 0 -0 0 0 -0 -0 0 -0 -0 -0 -0 0 0 0 0 0 0 0 0 0 0 0 0 0 0 0 0 0 0 0 0 0 0 0
-0 -0 -0 -0 -0 0 0 0 0 0 0 0 0 0 0 -0 -0 -0 -0 -0 -0 0 0 0 0 0 0 0 0 0 0 0 0 0 0 0 0 0 0 0 0 0 0 0 0
-0 -0 -0 -0 -0 -0 0 0 0 -0 0 0 0 -0 -0 0 0 0 0 -0 -0 0 0 0 0 0 0 0 0 0 0 0 0 0 0 0 0 0 0 0 0 0 0 0 0
0 0 0 0 0 -0 -0 -0 -0 0 0 0 0 0 0 0 0 0 0 -0 0 0 0 -0 0 0 0 0 0 -0 0 0 0 0 0 0 0 0 0 0 0 0 0 0 0
0 0 0 0 -0 0 0 0 -0 0 0 0 0 0 0 0 0 0 0 0 0 0 0 0 0 0 0 0 0 0 0 0 0 0 0 0 0 0 0 0 0 0 0 0 0
0 0 0 0 0 0 0 -0 0 0 0 0 0 0 0 0 0 0 0 0 0 0 0 0 0 0 0 0 0 0 0 0 0 0 0 0 0 0 0 0 0 0 0 0 0
0 0 0 -0 0 0 -0 0 0 0 0 0 0 0 0 0 0 0 0 0 0 0 0 0 0 0 0 0 0 0 0 0 0 0 0 0 0 0 0 0 0 0 0 0 0
0 0 -0 -0 0 0 0 0 0 0 0 0 0 0 0 0 0 0 0 0 0 0 0 0 0 0 0 0 0 0 0 0 0 0 0 0 0 0 0 0 0 0 0 0 0
0 0 -0 0 0 0 0 0 0 0 0 0 0 0 0 0 0 0 0 0 0 0 0 0 0 0 0 0 0 0 0 0 0 0 0 0 0 0 0 0 0 0 0 0 0
-0 0 -0 0 0 0 0 0 0 0 0 0 0 0 0 0 0 0 0 0 0 0 0 0 0 0 0 0 0 0 0 0 0 0 0 0 0 0 0 0 0 0 0 0 0
0 0 0 -0 0 0 0 0 0 0 0 0 0 0 0 0 0 0 0 0 0 0 0 0 0 0 0 0 0 0 0 0 1 1 0 0 0 0 0 0 0 0 0 0 0
0 0 0 0 0 0 0 0 0 0 0 0 0 0 0 0 0 0 0 0 0 0 0 0 0 0 0 0 0 0 0 0 0 0 0 0 0 0 0 0 0 0 0 0 0
-0 0 0 0 0 0 0 0 0 0 0 0 0 0 0 0 0 0 0 0 0 0 0 0 0 0 -0 -0 -0 0 -0 -0 0 0 0 0 0 0 0 0 0 0 0 0 0
0 0 0 0 0 0 0 0 0 0 0 0 0 0 0 0 0 0 0 0 0 0 0 0 0 0 -0 -0 0 -0 0 0 0 -0 0 0 0 0 0 0 0 0 0 0 0
0 0 0 0 0 0 0 0 0 0 0 0 0 0 0 0 0 0 0 0 0 0 0 0 0 0 0 0 0 0 0 0 0 0 0 0 0 0 0 0 0 0 0 0 0
Wind_Speed_500mb
26 26 26 25 25 24 23 22 22 22 21 21 23 25 25 26 26 29 26 18 11 29 20 19 16 20 24 31 25 21 20 25 26 20 13 27 25 18 12 27 13 8 19 43 49
25 25 25 24 23 23 22 21 21 22 21 20 22 24 25 26 27 29 23 19 23 25 37 26 22 23 30 31 25 28 25 35 22 12 7 28 27 29 24 29 22 31 40 50 49
24 24 23 22 22 22 20 19 20 21 21 20 22 24 22 24 19 6 12 6 12 28 24 31 20 24 30 30 36 39 33 32 18 17 13 17 24 26 24 27 29 38 48 48 45
25 25 24 22 21 20 19 18 19 21 20 20 20 22 20 18 4 9 9 11 12 23 21 34 29 28 29 27 37 28 37 28 24 15 17 21 23 20 25 10 19 38 46 46 43
26 25 22 20 19 18 18 18 18 19 21 18 17 19 18 11 14 12 9 6 14 27 27 29 31 30 27 28 22 33 24 33 25 24 21 15 24 16 16 21 37 41 43 44 40
24 24 22 20 18 17 18 18 17 19 18 15 15 17 13 16 11 1 7 9 10 27 26 21 17 20 18 20 28 21 30 21 19 21 13 26 14 25 20 29 36 38 41 40 39
24 24 23 20 17 16 16 16 17 17 14 14 14 17 17 18 8 10 10 12 19 15 19 21 12 22 13 14 13 12 26 18 22 20 12 26 21 26 34 34 35 35 35 36 35
22 23 21 18 15 14 16 16 16 14 13 15 14 17 12 9 2 7 13 10 15 15 9 14 16 11 18 9 18 27 28 29 30 22 11 25 36 28 36 39 36 35 34 35 42
19 20 19 15 14 14 16 15 16 19 21 17 14 4 4 6 10 2 18 11 15 12 9 10 18 14 16 25 21 22 26 39 25 29 16 29 35 41 39 36 37 38 38 37 36
18 18 17 13 12 13 13 16 18 15 7 12 6 7 9 7 9 0 17 21 15 20 16 14 19 19 22 23 25 24 31 17 33 24 27 33 36 24 31 35 38 41 41 39 39
16 15 13 9 9 12 15 12 13 1 13 11 16 20 17 15 4 8 17 23 18 19 19 21 20 26 30 27 25 15 24 29 22 23 30 39 39 27 27 35 40 43 45 46 44
13 11 9 4 7 9 14 7 9 10 15 8 12 11 16 16 6 13 19 27 22 22 11 16 27 17 10 14 20 24 27 29 22 16 24 34 46 45 36 40 43 45 47 48 46
10 8 5 4 11 6 8 12 23 18 11 8 5 13 9 11 4 7 22 19 20 23 22 28 6 5 21 22 25 28 30 27 31 15 28 29 39 44 39 39 44 46 48 51 56
7 6 3 7 9 4 2 26 23 12 8 13 20 12 7 1 6 4 19 14 12 15 20 22 24 18 25 26 26 31 29 31 32 28 31 39 35 42 42 39 40 52 55 59 59
7 6 6 7 8 3 14 26 15 4 2 11 26 11 7 8 17 9 8 18 27 12 14 11 15 19 23 25 22 30 31 28 29 32 34 37 24 33 38 41 44 52 63 66 62
13 12 10 9 3 10 22 22 8 11 9 11 20 18 11 16 28 17 6 11 14 19 23 35 22 17 29 24 17 23 18 25 24 27 34 39 36 33 36 38 37 47 64 62 59
20 19 16 11 3 16 19 4 8 9 12 16 19 15 20 20 19 26 19 19 19 13 17 16 26 30 14 30 30 29 31 26 30 29 32 39 40 33 35 24 25 24 24 51 55
31 28 22 15 13 11 5 3 13 8 18 19 16 10 12 23 15 26 22 11 27 29 20 13 16 6 14 15 23 27 28 30 46 34 35 36 36 30 3 8 15 22 25 38 53
28 29 30 27 18 9 9 13 10 13 17 20 21 14 8 17 23 18 11 17 19 28 17 23 31 28 28 29 28 29 19 23 32 40 35 39 42 19 15 10 4 8 19 38 48
11 13 32 28 15 15 9 11 11 17 11 12 16 8 22 23 21 22 13 19 18 29 28 17 33 31 34 24 33 29 26 25 23 37 47 39 37 22 15 9 9 7 19 33 43
7 3 24 15 21 14 11 10 11 21 23 20 18 22 20 23 25 21 11 14 25 28 34 27 21 33 34 33 34 22 27 32 32 25 34 36 24 17 19 14 12 12 19 32 44
9 3 27 18 12 8 13 7 8 17 24 12 12 15 15 17 14 12 13 15 20 38 30 22 14 31 39 43 52 31 42 43 31 37 34 30 29 14 12 10 5 18 27 37 46
7 8 25 8 7 12 12 11 13 17 20 13 12 12 14 11 10 11 12 24 23 32 23 19 11 29 26 24 17 16 35 55 35 37 38 32 29 13 11 10 5 17 28 43 50
2 2 11 24 13 8 8 10 7 12 11 10 10 5 16 11 4 13 15 15 38 28 16 18 22 27 28 37 31 39 28 24 28 22 39 36 34 18 16 8 6 17 30 41 48
7 8 5 6 14 13 9 4 9 5 7 17 1 14 14 9 20 5 29 30 29 5 23 9 25 31 36 42 43 47 38 31 17 32 23 19 18 26 31 24 11 20 36 44 47
4 5 11 10 3 6 1 5 8 6 5 6 12 17 12 11 19 31 32 24 10 17 14 9 18 32 39 42 34 42 31 21 21 20 35 31 29 34 36 23 10 24 37 45 47
18 15 2 2 5 4 6 3 6 5 3 6 13 17 11 20 29 31 22 19 14 11 18 14 18 24 26 38 37 21 25 2 9 3 6 14 17 29 20 20 7 19 31 39 42
Wind_Direction_500mb
316 309 303 299 297 296 300 299 301 301 298 300 300 300 301 298 295 289 273 241 226 204 176 169 176 195 196 212 217 224 239 244 229 230 122 157 166 171 155 145 147 148 140 151 152
315 310 306 303 300 300 295 296 299 300 299 301 300 301 304 304 303 279 257 230 216 199 201 189 188 188 199 213 208 218 225 234 250 247 251 172 186 163 167 156 136 120 127 141 149
322 318 313 311 308 298 293 296 300 299 299 300 303 302 309 315 312 156 162 152 205 200 198 201 199 194 218 213 211 219 244 236 236 257 276 198 198 170 194 188 166 154 148 150 154
327 329 325 313 305 298 297 298 301 300 298 302 305 307 312 312 330 187 217 266 238 190 182 185 193 200 219 213 216 240 230 258 246 268 254 234 190 198 205 85 152 160 155 156 160
333 330 321 310 305 309 304 305 302 302 297 303 308 309 313 277 264 242 265 261 211 179 180 185 197 208 223 220 214 228 232 224 250 259 244 231 195 168 140 123 138 148 155 162 162
331 329 325 317 317 313 309 306 305 299 300 309 307 303 306 264 260 139 144 108 173 177 185 189 209 206 235 233 221 215 232 235 232 231 216 204 178 169 158 147 147 152 157 163 164
329 331 329 323 319 314 309 304 306 304 313 308 310 305 282 267 226 186 116 124 151 182 196 203 206 200 179 189 209 222 212 204 215 208 209 216 197 216 158 160 160 159 159 161 163
327 331 329 323 316 315 310 315 316 312 317 311 313 315 265 265 302 237 202 174 165 177 171 203 194 222 231 149 186 210 229 220 180 202 190 201 219 147 164 167 171 168 167 168 177
322 328 331 327 323 329 330 324 308 308 309 306 306 296 236 176 24 269 186 177 155 172 176 184 190 235 193 212 203 208 226 222 167 199 179 212 227 142 170 177 178 180 179 176 180
315 327 333 333 344 355 346 324 322 324 322 322 293 249 206 157 340 229 173 159 164 159 164 184 201 213 227 222 226 217 229 231 242 173 219 208 232 144 180 191 188 188 186 185 187
309 321 334 352 20 53 26 0 344 13 321 279 310 277 291 287 251 172 173 177 163 199 211 201 221 219 216 226 277 288 257 251 225 224 220 233 221 180 185 204 199 196 196 195 193
310 321 341 33 102 92 39 23 12 320 306 280 302 293 283 242 232 188 170 194 207 231 188 201 232 236 274 233 237 241 245 244 250 273 223 237 236 243 178 212 212 206 202 201 193
317 326 345 114 142 128 44 360 347 333 262 20 12 18 16 155 221 179 183 218 231 237 227 260 300 276 213 216 234 236 246 247 253 196 228 257 251 236 206 219 221 218 213 207 202
337 338 57 125 139 201 339 343 340 338 246 48 39 39 7 269 182 323 214 243 228 265 240 261 273 213 229 241 235 254 212 256 249 237 247 205 253 227 223 213 219 220 216 213 207
16 45 112 138 148 18 322 340 331 302 166 21 28 16 21 345 338 74 208 243 265 220 235 223 202 215 238 244 249 251 260 240 252 252 248 241 254 258 251 224 208 225 223 218 209
61 73 96 125 119 333 336 334 325 228 69 19 25 3 45 40 37 27 49 235 283 282 238 270 289 276 274 285 257 256 229 234 252 254 245 242 254 243 247 221 242 240 227 217 207
74 77 79 87 344 330 331 317 225 32 336 10 357 355 37 14 28 13 4 45 21 304 258 267 258 247 296 282 252 235 246 251 238 232 246 248 242 244 249 272 225 265 293 202 199
81 80 67 37 352 344 67 225 58 33 16 348 344 300 37 14 358 347 348 5 35 351 314 298 272 30 23 325 315 304 251 257 265 260 265 255 245 246 267 34 309 278 258 189 188
67 63 32 22 26 54 284 45 35 6 352 337 309 321 353 11 331 351 34 15 35 19 349 316 285 319 302 311 291 285 251 284 291 280 276 273 267 154 143 119 348 282 202 180 185
38 51 19 32 30 33 62 79 87 29 335 329 355 356 328 341 333 330 322 37 5 13 347 320 301 288 305 289 264 250 288 276 238 262 266 265 264 287 134 79 91 140 177 177 179
10 65 7 17 31 45 55 74 78 39 14 355 343 320 333 344 324 327 15 83 12 352 339 333 295 294 305 278 282 267 248 247 270 273 282 278 282 62 79 67 104 142 168 173 174
27 26 352 22 56 49 59 32 16 15 14 12 3 341 352 340 324 345 2 11 2 344 325 313 289 286 289 299 291 283 286 286 267 263 252 261 277 69 78 46 111 143 156 168 168
68 43 12 31 59 88 104 87 50 20 24 7 10 358 347 327 312 339 348 355 2 340 339 325 295 301 294 280 338 354 352 330 319 298 271 270 261 120 94 80 91 141 154 165 162
108 188 50 54 55 37 114 63 79 43 53 12 14 344 334 315 305 300 316 333 334 332 333 308 283 282 287 294 285 282 286 309 334 301 282 257 276 86 34 41 134 149 157 162 164
47 73 41 40 57 67 76 64 55 47 34 15 337 3 349 307 318 312 327 328 320 23 308 280 280 286 290 298 286 271 265 276 286 310 303 346 332 4 350 326 268 172 164 161 161
73 128 83 94 74 84 50 63 28 51 328 44 342 342 334 310 326 317 327 328 338 329 335 321 289 311 295 291 289 271 249 257 265 264 275 303 322 353 349 348 127 166 169 166 166
77 102 108 116 132 250 55 58 39 329 154 312 329 319 343 348 312 299 294 292 278 315 340 318 316 316 308 338 304 279 22 342 78 5 302 325 343 339 3 2 60 152 169 166 167
Wind_Speed_850mb
26 26 26 25 25 24 23 22 22 22 21 21 23 25 25 26 26 29 26 18 11 29 20 19 16 20 24 31 25 21 20 25 26 20 13 27 25 18 12 27 13 8 19 43 49
25 25 25 24 23 23 22 21 21 22 21 20 22 24 25 26 27 29 23 19 23 25 37 26 22 23 30 31 25 28 25 35 22 12 7 28 27 29 24 29 22 31 40 50 49
24 24 23 22 22 22 20 19 20 21 21 20 22 24 22 24 19 6 12 6 12 28 24 31 20 24 30 30 36 39 33 32 18 17 13 17 24 26 24 27 29 38 48 48 45
25 25 24 22 21 20 19 18 19 21 20 20 20 22 20 18 4 9 9 11 12 23 21 34 29 28 29 27 37 28 37 28 24 15 17 21 23 20 25 10 19 38 46 46 43
26 25 22 20 19 18 18 18 18 19 21 18 17 19 18 11 14 12 9 6 14 27 27 29 31 30 27 28 22 33 24 33 25 24 21 15 24 16 16 21 37 41 43 44 40
24 24 22 20 18 17 18 18 17 19 18 15 15 17 13 16 11 1 7 9 10 27 26 21 17 20 18 20 28 21 30 21 19 21 13 26 14 25 20 29 36 38 41 40 39
24 24 23 20 17 16 16 16 17 17 14 14 14 17 17 18 8 10 10 12 19 15 19 21 12 22 13 14 13 12 26 18 22 20 12 26 21 26 34 34 35 35 35 36 35
22 23 21 18 15 14 16 16 16 14 13 15 14 17 12 9 2 7 13 10 15 15 9 14 16 11 18 9 18 27 28 29 30 22 11 25 36 28 36 39 36 35 34 35 42
19 20 19 15 14 14 16 15 16 19 21 17 14 4 4 6 10 2 18 11 15 12 9 10 18 14 16 25 21 22 26 39 25 29 16 29 35 41 39 36 37 38 38 37 36
18 18 17 13 12 13 13 16 18 15 7 12 6 7 9 7 9 0 17 21 15 20 16 14 19 19 22 23 25 24 31 17 33 24 27 33 36 24 31 35 38 41 41 39 39
16 15 13 9 9 12 15 12 13 1 13 11 16 20 17 15 4 8 17 23 18 19 19 21 20 26 30 27 25 15 24 29 22 23 30 39 39 27 27 35 40 43 45 46 44
13 11 9 4 7 9 14 7 9 10 15 8 12 11 16 16 6 13 19 27 22 22 11 16 27 17 10 14 20 24 27 29 22 16 24 34 46 45 36 40 43 45 47 48 46
10 8 5 4 11 6 8 12 23 18 11 8 5 13 9 11 4 7 22 19 20 23 22 28 6 5 21 22 25 28 30 27 31 15 28 29 39 44 39 39 44 46 48 51 56
7 6 3 7 9 4 2 26 23 12 8 13 20 12 7 1 6 4 19 14 12 15 20 22 24 18 25 26 26 31 29 31 32 28 31 39 35 42 42 39 40 52 55 59 59
7 6 6 7 8 3 14 26 15 4 2 11 26 11 7 8 17 9 8 18 27 12 14 11 15 19 23 25 22 30 31 28 29 32 34 37 24 33 38 41 44 52 63 66 62
13 12 10 9 3 10 22 22 8 11 9 11 20 18 11 16 28 17 6 11 14 19 23 35 22 17 29 24 17 23 18 25 24 27 34 39 36 33 36 38 37 47 64 62 59
20 19 16 11 3 16 19 4 8 9 12 16 19 15 20 20 19 26 19 19 19 13 17 16 26 30 14 30 30 29 31 26 30 29 32 39 40 33 35 24 25 24 24 51 55
31 28 22 15 13 11 5 3 13 8 18 19 16 10 12 23 15 26 22 11 27 29 20 13 16 6 14 15 23 27 28 30 46 34 35 36 36 30 3 8 15 22 25 38 53
28 29 30 27 18 9 9 13 10 13 17 20 21 14 8 17 23 18 11 17 19 28 17 23 31 28 28 29 28 29 19 23 32 40 35 39 42 19 15 10 4 8 19 38 48
11 13 32 28 15 15 9 11 11 17 11 12 16 8 22 23 21 22 13 19 18 29 28 17 33 31 34 24 33 29 26 25 23 37 47 39 37 22 15 9 9 7 19 33 43
7 3 24 15 21 14 11 10 11 21 23 20 18 22 20 23 25 21 11 14 25 28 34 27 21 33 34 33 34 22 27 32 32 25 34 36 24 17 19 14 12 12 19 32 44
9 3 27 18 12 8 13 7 8 17 24 12 12 15 15 17 14 12 13 15 20 38 30 22 14 31 39 43 52 31 42 43 31 37 34 30 29 14 12 10 5 18 27 37 46
7 8 25 8 7 12 12 11 13 17 20 13 12 12 14 11 10 11 12 24 23 32 23 19 11 29 26 24 17 16 35 55 35 37 38 32 29 13 11 10 5 17 28 43 50
2 2 11 24 13 8 8 10 7 12 11 10 10 5 16 11 4 13 15 15 38 28 16 18 22 27 28 37 31 39 28 24 28 22 39 36 34 18 16 8 6 17 30 41 48
7 8 5 6 14 13 9 4 9 5 7 17 1 14 14 9 20 5 29 30 29 5 23 9 25 31 36 42 43 47 38 31 17 32 23 19 18 26 31 24 11 20 36 44 47
4 5 11 10 3 6 1 5 8 6 5 6 12 17 12 11 19 31 32 24 10 17 14 9 18 32 39 42 34 42 31 21 21 20 35 31 29 34 36 23 10 24 37 45 47
18 15 2 2 5 4 6 3 6 5 3 6 13 17 11 20 29 31 22 19 14 11 18 14 18 24 26 38 37 21 25 2 9 3 6 14 17 29 20 20 7 19 31 39 42
Wind_Direction_850mb
316 309 303 299 297 296 300 299 301 301 298 300 300 300 301 298 295 289 273 241 226 204 176 169 176 195 196 212 217 224 239 244 229 230 122 157 166 171 155 145 147 148 140 151 152
315 310 306 303 300 300 295 296 299 300 299 301 300 301 304 304 303 279 257 230 216 199 201 189 188 188 199 213 208 218 225 234 250 247 251 172 186 163 167 156 136 120 127 141 149
322 318 313 311 308 298 293 296 300 299 299 300 303 302 309 315 312 156 162 152 205 200 198 201 199 194 218 213 211 219 244 236 236 257 276 198 198 170 194 188 166 154 148 150 154
327 329 325 313 305 298 297 298 301 300 298 302 305 307 312 312 330 187 217 266 238 190 182 185 193 200 219 213 216 240 230 258 246 268 254 234 190 198 205 85 152 160 155 156 160
333 330 321 310 305 309 304 305 302 302 297 303 308 309 313 277 264 242 265 261 211 179 180 185 197 208 223 220 214 228 232 224 250 259 244 231 195 168 140 123 138 148 155 162 162
331 329 325 317 317 313 309 306 305 299 300 309 307 303 306 264 260 139 144 108 173 177 185 189 209 206 235 233 221 215 232 235 232 231 216 204 178 169 158 147 147 152 157 163 164
329 331 329 323 319 314 309 304 306 304 313 308 310 305 282 267 226 186 116 124 151 182 196 203 206 200 179 189 209 222 212 204 215 208 209 216 197 216 158 160 160 159 159 161 163
327 331 329 323 316 315 310 315 316 312 317 311 313 315 265 265 302 237 202 174 165 177 171 203 194 222 231 149 186 210 229 220 180 202 190 201 219 147 164 167 171 168 167 168 177
322 328 331 327 323 329 330 324 308 308 309 306 306 296 236 176 24 269 186 177 155 172 176 184 190 235 193 212 203 208 226 222 167 199 179 212 227 142 170 177 178 180 179 176 180
315 327 333 333 344 355 346 324 322 324 322 322 293 249 206 157 340 229 173 159 164 159 164 184 201 213 227 222 226 217 229 231 242 173 219 208 232 144 180 191 188 188 186 185 187
309 321 334 352 20 53 26 0 344 13 321 279 310 277 291 287 251 172 173 177 163 199 211 201 221 219 216 226 277 288 257 251 225 224 220 233 221 180 185 204 199 196 196 195 193
310 321 341 33 102 92 39 23 12 320 306 280 302 293 283 242 232 188 170 194 207 231 188 201 232 236 274 233 237 241 245 244 250 273 223 237 236 243 178 212 212 206 202 201 193
317 326 345 114 142 128 44 360 347 333 262 20 12 18 16 155 221 179 183 218 231 237 227 260 300 276 213 216 234 236 246 247 253 196 228 257 251 236 206 219 221 218 213 207 202
337 338 57 125 139 201 339 343 340 338 246 48 39 39 7 269 182 323 214 243 228 265 240 261 273 213 229 241 235 254 212 256 249 237 247 205 253 227 223 213 219 220 216 213 207
16 45 112 138 148 18 322 340 331 302 166 21 28 16 21 345 338 74 208 243 265 220 235 223 202 215 238 244 249 251 260 240 252 252 248 241 254 258 251 224 208 225 223 218 209
61 73 96 125 119 333 336 334 325 228 69 19 25 3 45 40 37 27 49 235 283 282 238 270 289 276 274 285 257 256 229 234 252 254 245 242 254 243 247 221 242 240 227 217 207
74 77 79 87 344 330 331 317 225 32 336 10 357 355 37 14 28 13 4 45 21 304 258 267 258 247 296 282 252 235 246 251 238 232 246 248 242 244 249 272 225 265 293 202 199
81 80 67 37 352 344 67 225 58 33 16 348 344 300 37 14 358 347 348 5 35 351 314 298 272 30 23 325 315 304 251 257 265 260 265 255 245 246 267 34 309 278 258 189 188
67 63 32 22 26 54 284 45 35 6 352 337 309 321 353 11 331 351 34 15 35 19 349 316 285 319 302 311 291 285 251 284 291 280 276 273 267 154 143 119 348 282 202 180 185
38 51 19 32 30 33 62 79 87 29 335 329 355 356 328 341 333 330 322 37 5 13 347 320 301 288 305 289 264 250 288 276 238 262 266 265 264 287 134 79 91 140 177 177 179
10 65 7 17 31 45 55 74 78 39 14 355 343 320 333 344 324 327 15 83 12 352 339 333 295 294 305 278 282 267 248 247 270 273 282 278 282 62 79 67 104 142 168 173 174
27 26 352 22 56 49 59 32 16 15 14 12 3 341 352 340 324 345 2 11 2 344 325 313 289 286 289 299 291 283 286 286 267 263 252 261 277 69 78 46 111 143 156 168 168
68 43 12 31 59 88 104 87 50 20 24 7 10 358 347 327 312 339 348 355 2 340 339 325 295 301 294 280 338 354 352 330 319 298 271 270 261 120 94 80 91 141 154 165 162
108 188 50 54 55 37 114 63 79 43 53 12 14 344 334 315 305 300 316 333 334 332 333 308 283 282 287 294 285 282 286 309 334 301 282 257 276 86 34 41 134 149 157 162 164
47 73 41 40 57 67 76 64 55 47 34 15 337 3 349 307 318 312 327 328 320 23 308 280 280 286 290 298 286 271 265 276 286 310 303 346 332 4 350 326 268 172 164 161 161
73 128 83 94 74 84 50 63 28 51 328 44 342 342 334 310 326 317 327 328 338 329 335 321 289 311 295 291 289 271 249 257 265 264 275 303 322 353 349 348 127 166 169 166 166
77 102 108 116 132 250 55 58 39 329 154 312 329 319 343 348 312 299 294 292 278 315 340 318 316 316 308 338 304 279 22 342 78 5 302 325 343 339 3 2 60 152 169 166 167